This demonstration page uses our WeatherBlox Daily Observations layout. Learn more.

38.88101, -77.10428

Hourly Observations for August 15, 2015

Temp ( °F °C ) Dew Point ( °F °C ) Humidity (%) Winds ( mph kmh ) Pressure ( in mb ) Visibility ( mi km ) Precip ( " mm )
12:52 am 00:52 Clear 72 22.2 61 16.1 68 68 SW 5 7 30.15 1021 10 16.0934 0 0
1:52 am 01:52 Clear 71 21.7 61 16.1 71 71 SW 5 7 30.15 1021 10 16.0934 0 0
2:52 am 02:52 Clear 70 21.1 61 16.1 73 73 SW 5 7 30.13 1020 10 16.0934 0 0
3:52 am 03:52 Clear 69 20.6 60 15.6 73 73 SSW 5 7 30.14 1021 10 16.0934 0 0
4:52 am 04:52 Clear 68 20 60 15.6 76 76 SSW 6 9 30.14 1021 10 16.0934 0 0
5:52 am 05:52 Mostly Clear 68 20 60 15.6 76 76 S 6 9 30.14 1021 10 16.0934 0 0
6:52 am 06:52 Partly Cloudy 68 20 63 17.2 84 84 SSW 5 7 30.16 1021 10 16.0934 0 0
7:52 am 07:52 Mostly Cloudy 71 21.7 65 18.3 81 81 SSW 6 9 30.17 1022 10 16.0934 0 0
8:52 am 08:52 Mostly Cloudy 74 23.3 65 18.3 74 74 S 7 11 30.17 1022 10 16.0934 0 0
9:52 am 09:52 Mostly Cloudy 76 24.4 66 18.9 72 72 S 8 13 30.16 1022 10 16.0934 0 0
10:52 am 10:52 Mostly Cloudy 80 26.7 66 18.9 62 62 S 8 13 30.17 1022 10 16.0934 0 0
11:52 am 11:52 Mostly Cloudy 83 28.3 64 17.8 53 53 SSE 10 17 30.17 1022 10 16.0934 0 0
12:52 pm 12:52 Mostly Cloudy 85 29.4 65 18.3 51 51 S 9 15 30.16 1021 10 16.0934 0 0
1:52 pm 13:52 Mostly Cloudy 87 30.6 62 16.7 43 43 S 7 11 30.14 1021 10 16.0934 0 0
2:52 pm 14:52 Partly Cloudy 89 31.7 62 16.7 41 41 S 8 13 30.13 1020 10 16.0934 0 0
3:52 pm 15:52 Partly Cloudy 88 31.1 61 16.1 40 40 S 8 13 30.11 1020 10 16.0934 0 0
4:52 pm 16:52 Partly Cloudy 88 31.1 63 17.2 43 43 S 12 19 30.11 1020 10 16.0934 0 0
5:52 pm 17:52 Partly Cloudy 87 30.6 63 17.2 45 45 S 13 20 30.09 1019 10 16.0934 0 0
6:52 pm 18:52 Partly Cloudy 84 28.9 62 16.7 48 48 S 12 19 30.1 1019 10 16.0934 0 0
7:52 pm 19:52 Mostly Cloudy 81 27.2 62 16.7 53 53 S 12 19 30.11 1020 10 16.0934 0 0
8:52 pm 20:52 Partly Cloudy 79 26.1 63 17.2 58 58 S 10 17 30.11 1020 10 16.0934 0 0
9:52 pm 21:52 Mostly Clear 76 24.4 63 17.2 64 64 SSE 3 6 30.14 1021 10 16.0934 0 0
10:52 pm 22:52 Mostly Clear 75 23.9 63 17.2 66 66 S 8 13 30.14 1021 10 16.0934 0 0
11:52 pm 23:52 Clear 73 22.8 62 16.7 69 69 SSW 7 11 30.16 1021 10 16.0934 0 0

Powered by AerisWeather